Tracking 19254 objects as of 24-Oct-2018
HD Live streaming from Space Station
objects crossing your sky now

EAGLESAT-1

Track EAGLESAT-1 now!
10-day predictions
EAGLESAT-1 is classified as:


NORAD ID: 43018
Int'l Code: 2017-073F
Perigee: 460.7 km
Apogee: 821.6 km
Inclination: 97.7 °
Period: 97.4 minutes
Semi major axis: 7012 km
RCS: Unknown
Launch date: November 18, 2017
Source: United States (US)
Launch site: AIR FORCE WESTERN TEST RANGE (AFWTR)

Uplink (MHz):
Downlink (MHz): 437.645
Beacon (MHz):
Mode: 1200bps AFSK
Call sign:
Status: Inactive

aabbcc
Your satellite tracking list
Your tracking list is empty




NASA's NSSDC Master Catalog

Two Line Element Set (TLE):
1 43018U 17073F   18296.52733351 +.00000590 +00000-0 +51887-4 0  9996
2 43018 097.7107 222.3946 0257363 213.3184 145.1602 14.78525181049931
Source of the keplerian elements: AFSPC